Regional Weather Roundup
Issued by NWS

Home | Current Version | Previous Version | Graphics & Text | Print | Product List | Glossary On
Versions: 1 2 3 4 5 6 7 8 9 10 11 12 13 14 15 16 17 18 19 20 21 22 23 24 25 26 27 28 29 30 31 32 33 34 35 36 37 38 39 40 41 42 43 44 45 46 47 48 49 50
000
ASUS45 KCYS 222110
RWRWY

WYOMING REGIONAL WEATHER ROUNDUP
NATIONAL WEATHER SERVICE CHEYENNE WY
300 PM MDT TUE AUG 22 2017

NOTE:  "FAIR" INDICATES FEW OR NO CLOUDS BELOW 12,000 FEET
WITH NO SIGNIFICANT WEATHER AND/OR OBSTRUCTIONS TO VISIBILITY.

WYZ001-222200-
YELLOWSTONE NATIONAL PARK

CITY           SKY/WX    TMP DP  RH WIND       PRES   REMARKS
LK YELLOWSTONE   N/A     74  41  30 VRB3      30.40F
W YELLOWSTONE  NOT AVBL

$$
WYZ002>013-054>058-071-098>099-222200-
NORTHERN WYOMING

CITY           SKY/WX    TMP DP  RH WIND       PRES   REMARKS
JACKSON        FAIR      81  27  14 S9        30.30F
CODY           FAIR      84  35  17 E10       30.20F
GREYBULL       FAIR      88  31  13 SE3       30.11F
WORLAND        FAIR      87  36  16 N6        30.14F
SHERIDAN       FAIR      86  33  15 VRB5      30.16F
BUFFALO        FAIR      85  30  13 S5        30.22F
GILLETTE       FAIR      86  31  13 N10       30.17F
HULETT         FAIR      82  37  20 SE6       30.20F
NEWCASTLE      FAIR      82  43  24 SE13G20   30.19F

$$
WYZ014>020-022>026-101>103-222200-
CENTRAL WYOMING

CITY           SKY/WX    TMP DP  RH WIND       PRES   REMARKS
BIG PINEY      FAIR      82  27  13 W7        30.34F
PINEDALE       FAIR      79  21  11 N7G20     30.35F
DUBOIS         FAIR      81  27  13 N14       30.31F
LANDER           N/A    N/A N/A N/A MISG      30.22F
RIVERTON       FAIR      82  33  17 E10       30.23F
CASPER         FAIR      84  37  18 VRB5      30.22F
DOUGLAS        FAIR      82  46  28 CALM      30.22F

$$
WYZ021-027>030-104>119-222200-
SOUTHERN WYOMING

CITY           SKY/WX    TMP DP  RH WIND       PRES   REMARKS
EVANSTON       FAIR      79  30  16 SW8       30.36F
KEMMERER         N/A     82  27  13 W10G22    30.38S
FORT BRIDGER   FAIR      82  36  19 S25G31    30.38F
ROCK SPRINGS   FAIR      85  24  11 NW12G17   30.32F
DIXON          FAIR      86  27  12 W10       30.32F
RAWLINS        NOT AVBL
SARATOGA       FAIR      82  28  14 W7G18     30.34
LARAMIE        FAIR      82  28  14 N16G24    30.33F
CHEYENNE       FAIR      75  54  47 S16G25    30.31F
TORRINGTON     FAIR      85  50  29 SE15G21   30.17F
PINE BLUFFS    FAIR      79  48  34 S10G20    30.27F

$$



USA.gov is the U.S. government's official web portal to all federal, state and local government web resources and services.